FENGYUN 1C DEB

Satellite information

Favourite Embed

Satellite Type and Status

DEBRISIN ORBIT

Key statistics

Satellite FENGYUN 1C DEB at a glance.

Uptime

9715

Days in orbit

Revolutions

≈ 14.1

Per day

Orbit

SSO

Sun Synchronous Orbit

Inclination

99.3

Latest

Satellite identification and parameters

Extended collection of information and parameters for FENGYUN 1C DEB.

Object identification

Identified? True

Debris? True

Object name: FENGYUN 1C DEB

International designator: 1999-025MY

Object number (NORAD): 30023

Object ID (CCSDS): 30023

Country: PEOPLES REPUBLIC OF CHINA (PRC)

Current information (Y/N): Y

RCS size: SMALL

Orbital parameters

Period: 101.993 minutes

Inclination: 99.2939 deg

SMA: 7231.146 km

Apoapsis: 887.12 km

Periapsis: 818.902 km

RAAN: 179.6501 deg

Eccentricy: 0.00471694

Argument of periapsis: 65.3083 deg

Mean anomaly: 63.2148 deg

Mean motion: 14.11861473 rev/day

Mean motion (dot): 0.00000998 rev/day2

B* drag term: 0.00056635755 1/REarth

Two-line elements (TLE)

Creation date: Dec. 12, 2025, 10:14 a.m.

Reference frame: TEME

Reference center: EARTH

Epoch: Dec. 12, 2025, 2:40 a.m. UTC

TLE line 0: 0 FENGYUN 1C DEB

TLE line 1: 1 30023U 99025MY 25346.11128007 .00000998 00000-0 56636-3 0 9998

TLE line 2: 2 30023 99.2939 179.6501 0047169 65.3083 63.2148 14.11861473971874

Live tracking on map

Real-time ground track for satellite FENGYUN 1C DEB.

In-orbit conjunctions

A list of the most updated potential collisions computed for object FENGYUN 1C DEB.

Target Orbit TCA Probability of collision Miss distance Type
COSMOS 2227 LEO 2025-05-15 01:18:10 0.0004396225 895.0 (m) PAYLOAD
FENGYUN 1C DEB SSO 2024-11-14 13:28:05 0.000336987 912.0 (m) DEBRIS
DELTA 1 DEB SSO 2024-11-10 09:03:17 0.0004264274 475.0 (m) DEBRIS

Associated space launch

Chinese polar orbiting meteorological satellite

FENGYUN 1C DEB was lifted into orbit during the mission ‘Long March 4B | Feng Yun 1C’, on board a Long March 4B space rocket.

The launch took place on May 10, 1999, 1:33 a.m. from Launch Complex 7.

For more information about the launch, click the button.

Launch to space Long March 4B | Feng Yun 1C
Long March 4B | Feng Yun 1C

Agency: N/A

Status: Launch Successful

Launch date: May 10, 1999, 1:33 a.m. UTC

Rocket: Long March 4B

Launch pad: Launch Complex 7

Location: Taiyuan Satellite Launch Center, People's Republic of China

...

Latest news about this satellite

There are no fresh news available about this satellite. Check back as we update our databases every day.


Newsletter sign-up

Weekly statistics, charts and insights to help you stay on top of the space industry.